User: anonymous   Login
Location: Onan Observatory
(44.8103°N, 93.9397°W)
Time: 17:33:16
(UTC-05:00)
Language:

Iridium 90 - Orbit

View from above orbital plane
View from above orbital plane
View from above satellite
View from above satellite

Ground track
Ground track

The orbit data is extracted from the following two-line orbital elements,

1 27373U 02005B   15150.45605051  .00000165  00000-0  43413-4 0  9998
2 27373 086.4450 303.0087 0002105 078.7156 281.4281 14.42951521703385
Epoch (UTC): 30 May 2015 10:56:42
Eccentricity: 0.0002105
inclination: 86.4450°
perigee height: 747 km
apogee height: 750 km
right ascension of ascending node: 303.0087°
argument of perigee: 78.7156°
revolutions per day: 14.42951521
mean anomaly at epoch: 281.4281°
orbit number at epoch: 70338

The dashed part of the orbit path shows where the satellite is in the earth's shadow,  

DLR